SV2RIM-2 Weather Reports


time (UTC)temp
C
wind
direction
speed
KPH
gust
KPH
rain 1hr
cm
rain 24hr
cm
rain mn
cm
humidity
%
barometer
mb
20260506132019 30 188 3.2 6.4 0.00 0.00 0.00 35 1013.8
20260506131019 28 188 6.4 9.7 0.00 0.00 0.00 38 1013.9
20260506130018 28 200 3.2 9.7 0.00 0.00 0.00 37 1014.0
20260506125019 28 198 4.8 9.7 0.00 0.00 0.00 37 1014.1
20260506124019 28 193 3.2 8.0 0.00 0.00 0.00 38 1014.2
20260506123019 28 189 4.8 9.7 0.00 0.00 0.00 38 1014.2
20260506122019 28 331 3.2 8.0 0.00 0.00 0.00 38 1014.3
20260506121019 27 196 4.8 9.7 0.00 0.00 0.00 40 1014.5
20260506120019 28 198 3.2 9.7 0.00 0.00 0.00 38 1014.6
20260506115019 27 210 3.2 4.8 0.00 0.00 0.00 39 1014.7
20260506114019 28 198 3.2 9.7 0.00 0.00 0.00 38 1014.8
20260506113018 27 204 3.2 9.7 0.00 0.00 0.00 39 1014.9
20260506112019 27 188 3.2 9.7 0.00 0.00 0.00 38 1015.0
20260506111019 27 213 4.8 6.4 0.00 0.00 0.00 39 1015.1
20260506110019 26 194 3.2 6.4 0.00 0.00 0.00 39 1015.1
20260506105018 26 197 4.8 11.3 0.00 0.00 0.00 39 1015.2
20260506104019 26 210 3.2 6.4 0.00 0.00 0.00 38 1015.2
20260506103018 26 208 3.2 8.0 0.00 0.00 0.00 39 1015.3
20260506102019 26 211 4.8 11.3 0.00 0.00 0.00 40 1015.4
20260506101018 25 191 3.2 6.4 0.00 0.00 0.00 41 1015.5
20260506100019 25 218 1.6 6.4 0.00 0.00 0.00 41 1015.6
20260506095019 25 209 3.2 4.8 0.00 0.00 0.00 42 1015.6
20260506094019 25 220 1.6 4.8 0.00 0.00 0.00 40 1015.7
20260506093019 25 198 4.8 11.3 0.00 0.00 0.00 42 1015.7
20260506092019 24 212 3.2 6.4 0.00 0.00 0.00 42 1015.8
20260506091019 24 208 3.2 8.0 0.00 0.00 0.00 42 1015.7
20260506090019 24 259 1.6 4.8 0.00 0.00 0.00 42 1015.8
20260506085018 23 175 3.2 11.3 0.00 0.00 0.00 42 1015.8
20260506084019 24 237 3.2 6.4 0.00 0.00 0.00 41 1015.7
20260506083019 23 279 1.6 4.8 0.00 0.00 0.00 41 1015.7
20260506082019 23 228 3.2 6.4 0.00 0.00 0.00 42 1015.7
20260506081019 23 224 1.6 6.4 0.00 0.00 0.00 43 1015.7
20260506073019 22 211 1.6 4.8 0.00 0.00 0.00 41 1015.6
20260506072019 22 240 1.6 4.8 0.00 0.00 0.00 41 1015.5
20260506071019 22 205 3.2 6.4 0.00 0.00 0.00 42 1015.5
20260506062019 23 209 1.6 4.8 0.00 0.00 0.00 36 1015.7
20260506061019 23 293 1.6 4.8 0.00 0.00 0.00 36 1015.6
20260506051019 12 341 6.4 12.9 0.00 0.00 0.00 59 1015.5
20260506045019 12 339 9.7 17.7 0.00 0.00 0.00 60 1015.4
20260506044019 11 348 9.7 14.5 0.00 0.00 0.00 62 1015.3
20260506043019 10 310 8.0 16.1 0.00 0.00 0.00 64 1015.3
20260506042019 11 341 11.3 20.9 0.00 0.00 0.00 62 1015.2
20260506041019 11 342 11.3 17.7 0.00 0.00 0.00 60 1015.1
20260506040019 11 345 11.3 17.7 0.00 0.00 0.00 61 1015.1
20260506035019 10 325 9.7 19.3 0.00 0.00 0.00 62 1015.1
20260506034019 10 335 9.7 16.1 0.00 0.00 0.00 63 1015.0
20260506033019 10 339 11.3 19.3 0.00 0.00 0.00 62 1014.9
20260506032019 10 335 8.0 14.5 0.00 0.00 0.00 61 1014.9
20260506031019 10 353 9.7 17.7 0.00 0.00 0.00 61 1014.8
20260506030019 10 331 8.0 12.9 0.00 0.00 0.00 61 1014.8
20260506025019 10 334 8.0 16.1 0.00 0.00 0.00 61 1014.7
20260506024019 10 313 9.7 17.7 0.00 0.00 0.00 61 1014.7
20260506023019 11 334 9.7 16.1 0.00 0.00 0.00 60 1014.8
20260506022019 11 328 8.0 14.5 0.00 0.00 0.00 59 1014.8
20260506021019 11 309 8.0 12.9 0.00 0.00 0.00 59 1014.8
20260506020019 11 330 8.0 12.9 0.00 0.00 0.00 59 1014.8
20260506015019 11 316 8.0 12.9 0.00 0.00 0.00 59 1014.8
20260506014019 11 330 9.7 14.5 0.00 0.00 0.00 58 1014.9
20260506013019 11 330 8.0 17.7 0.00 0.00 0.00 58 1014.8
20260506012019 11 332 8.0 12.9 0.00 0.00 0.00 58 1014.9
20260506011019 11 318 6.4 11.3 0.00 0.00 0.00 57 1014.9
20260506010019 12 312 6.4 11.3 0.00 0.00 0.00 57 1014.9
20260506005019 12 353 8.0 12.9 0.00 0.00 0.00 56 1014.8
20260506004018 12 335 8.0 16.1 0.00 0.00 0.00 56 1014.8
20260506003019 12 323 6.4 11.3 0.00 0.00 0.00 55 1014.8
20260506002019 12 342 6.4 11.3 0.00 0.00 0.00 55 1014.8
20260506001019 12 311 4.8 9.7 0.00 0.00 0.00 54 1014.8
20260506000019 12 326 4.8 8.0 0.00 0.00 0.00 54 1014.9
20260505235019 12 311 4.8 9.7 0.00 0.00 0.00 54 1015.0
20260505234019 12 304 6.4 9.7 0.00 0.00 0.00 54 1015.0
20260505233019 12 312 6.4 11.3 0.00 0.00 0.00 53 1015.0
20260505232019 12 333 8.0 14.5 0.00 0.00 0.00 53 1015.0
20260505231019 12 336 6.4 11.3 0.00 0.00 0.00 52 1015.0
20260505230018 12 316 8.0 14.5 0.00 0.00 0.00 52 1015.0
20260505225019 12 342 8.0 14.5 0.00 0.00 0.00 52 1015.0
20260505224019 12 341 9.7 16.1 0.00 0.00 0.00 52 1015.0
20260505223019 12 341 9.7 14.5 0.00 0.00 0.00 52 1015.0
20260505222019 12 354 8.0 14.5 0.00 0.00 0.00 51 1015.0
20260505221019 13 329 6.4 11.3 0.00 0.00 0.00 49 1015.0
20260505220018 12 328 6.4 11.3 0.00 0.00 0.00 50 1014.9
20260505215019 13 325 6.4 11.3 0.00 0.00 0.00 48 1014.9
20260505214019 13 347 4.8 9.7 0.00 0.00 0.00 46 1014.8
20260505213019 14 349 4.8 9.7 0.00 0.00 0.00 46 1014.7
20260505212019 14 349 4.8 9.7 0.00 0.00 0.00 45 1014.6
20260505211019 14 322 3.2 9.7 0.00 0.00 0.00 45 1014.5
20260505210019 15 327 3.2 9.7 0.00 0.00 0.00 43 1014.5
20260505205019 15 277 1.6 4.8 0.00 0.00 0.00 43 1014.4
20260505204019 15 315 3.2 6.4 0.00 0.00 0.00 43 1014.4
20260505203019 15 348 6.4 11.3 0.00 0.00 0.00 43 1014.3
20260505202019 15 347 4.8 8.0 0.00 0.00 0.00 42 1014.3
20260505201019 16 284 3.2 4.8 0.00 0.00 0.00 41 1014.1
20260505200019 16 295 1.6 3.2 0.00 0.00 0.00 40 1014.1
20260505195019 16 297 0.0 1.6 0.00 0.00 0.00 40 1013.9
20260505194019 16 338 8.0 12.9 0.00 0.00 0.00 39 1013.7
20260505193019 17 348 3.2 11.3 0.00 0.00 0.00 38 1013.5
20260505192018 17 338 8.0 12.9 0.00 0.00 0.00 38 1013.4
20260505191019 17 354 6.4 14.5 0.00 0.00 0.00 37 1013.2
20260505190019 17 349 6.4 12.9 0.00 0.00 0.00 36 1013.1
20260505185019 17 339 8.0 12.9 0.00 0.00 0.00 36 1012.9
20260505184019 17 345 9.7 16.1 0.00 0.00 0.00 37 1012.8
20260505183019 17 315 9.7 16.1 0.00 0.00 0.00 36 1012.7
20260505182019 17 347 9.7 16.1 0.00 0.00 0.00 35 1012.6
20260505181019 18 320 6.4 12.9 0.00 0.00 0.00 34 1012.4
20260505180019 18 330 6.4 12.9 0.00 0.00 0.00 33 1012.4
20260505175019 18 306 3.2 8.0 0.00 0.00 0.00 32 1012.2
20260505174018 19 313 6.4 9.7 0.00 0.00 0.00 31 1012.2
20260505173019 20 305 4.8 8.0 0.00 0.00 0.00 30 1012.3
20260505172019 21 311 3.2 6.4 0.00 0.00 0.00 28 1012.3
20260505171019 22 278 0.0 3.2 0.00 0.00 0.00 26 1012.3
20260505170019 23 219 1.6 3.2 0.00 0.00 0.00 25 1012.2
20260505165019 25 218 1.6 3.2 0.00 0.00 0.00 24 1012.2
20260505164018 26 202 1.6 3.2 0.00 0.00 0.00 21 1012.2
20260505163019 25 196 1.6 3.2 0.00 0.00 0.00 23 1012.2
20260505162019 26 203 1.6 4.8 0.00 0.00 0.00 23 1012.2
20260505161019 27 210 1.6 4.8 0.00 0.00 0.00 23 1012.2
20260505153019 31 186 1.6 8.0 0.00 0.00 0.00 19 1012.3
20260505152019 31 191 3.2 6.4 0.00 0.00 0.00 20 1012.3
20260505151019 31 204 3.2 8.0 0.00 0.00 0.00 20 1012.4